Time,TemperatureF,DewpointF,PressureIn,WindDirection,WindDirectionDegrees,WindSpeedMPH,WindSpeedGustMPH,Humidity,HourlyPrecipIn,Conditions,Clouds,dailyrainin,SoftwareType,DateUTC
2013-12-04 00:00:00,33.1,29.1,29.88,SE,139,0.0,0.0,85,0.00,,,0.01,Wunderground v.1.15,2013-12-04 05:00:00,
2013-12-04 00:05:00,33.1,29.1,29.88,SSE,163,0.0,0.0,85,0.00,,,0.01,Wunderground v.1.15,2013-12-04 05:05:00,
2013-12-04 00:10:00,33.0,29.3,29.88,SSE,163,0.0,0.0,86,0.00,,,0.00,Wunderground v.1.15,2013-12-04 05:10:00,
2013-12-04 00:15:00,32.9,28.6,29.88,ESE,122,0.0,0.0,84,0.00,,,0.00,Wunderground v.1.15,2013-12-04 05:15:00,
2013-12-04 00:20:00,33.0,28.4,29.88,ENE,73,1.0,1.0,83,0.00,,,0.00,Wunderground v.1.15,2013-12-04 05:20:00,
2013-12-04 00:25:00,32.9,28.0,29.88,SE,145,0.0,2.0,82,0.00,,,0.00,Wunderground v.1.15,2013-12-04 05:25:00,
2013-12-04 00:34:00,32.9,26.8,29.88,South,174,1.0,1.0,78,0.00,,,0.00,Wunderground v.1.15,2013-12-04 05:34:00,
2013-12-04 00:40:00,32.8,26.7,29.88,ESE,118,1.0,1.0,78,0.00,,,0.00,Wunderground v.1.15,2013-12-04 05:40:00,
2013-12-04 00:45:00,32.8,26.4,29.88,East,83,1.0,1.0,77,0.00,,,0.00,Wunderground v.1.15,2013-12-04 05:45:00,
2013-12-04 00:50:00,32.6,25.9,29.88,SSE,159,1.0,1.0,76,0.00,,,0.00,Wunderground v.1.15,2013-12-04 05:50:00,
2013-12-04 01:00:00,32.5,25.8,29.89,SSE,161,0.0,0.0,76,0.00,,,0.00,Wunderground v.1.15,2013-12-04 06:00:00,
2013-12-04 01:10:00,32.3,25.9,29.89,SSE,160,0.0,0.0,77,0.00,,,0.00,Wunderground v.1.15,2013-12-04 06:10:00,
2013-12-04 01:15:00,32.2,25.5,29.89,ESE,111,0.0,2.0,76,0.00,,,0.00,Wunderground v.1.15,2013-12-04 06:15:00,
2013-12-04 01:20:00,32.1,25.4,29.89,SSE,155,0.0,0.0,76,0.00,,,0.00,Wunderground v.1.15,2013-12-04 06:20:00,
2013-12-04 01:30:00,32.0,25.6,29.90,SSE,150,0.0,1.0,77,0.00,,,0.00,Wunderground v.1.15,2013-12-04 06:30:00,
2013-12-04 01:40:00,32.1,25.4,29.90,SSE,161,2.0,2.0,76,0.00,,,0.00,Wunderground v.1.15,2013-12-04 06:40:00,
2013-12-04 01:45:00,32.1,25.7,29.90,SSE,160,1.0,2.0,77,0.00,,,0.00,Wunderground v.1.15,2013-12-04 06:45:00,
2013-12-04 01:50:00,32.0,25.6,29.91,SSE,159,0.0,0.0,77,0.00,,,0.00,Wunderground v.1.15,2013-12-04 06:50:00,
2013-12-04 01:55:00,31.9,25.8,29.91,SSE,159,0.0,0.0,78,0.00,,,0.00,Wunderground v.1.15,2013-12-04 06:55:00,
2013-12-04 02:00:00,31.9,25.5,29.91,SSE,159,0.0,0.0,77,0.00,,,0.00,Wunderground v.1.15,2013-12-04 07:00:00,
2013-12-04 02:10:00,31.8,25.4,29.91,SSE,159,0.0,0.0,77,0.00,,,0.00,Wunderground v.1.15,2013-12-04 07:10:00,
2013-12-04 02:15:00,31.8,25.1,29.91,SE,139,0.0,0.0,76,0.00,,,0.00,Wunderground v.1.15,2013-12-04 07:15:00,
2013-12-04 02:20:00,31.7,25.3,29.91,SE,139,0.0,0.0,77,0.00,,,0.00,Wunderground v.1.15,2013-12-04 07:20:00,
2013-12-04 02:25:00,31.7,25.0,29.91,SE,139,0.0,0.0,76,0.00,,,0.00,Wunderground v.1.15,2013-12-04 07:25:00,
2013-12-04 02:30:00,31.6,24.9,29.91,SE,139,0.0,0.0,76,0.00,,,0.00,Wunderground v.1.15,2013-12-04 07:30:00,
2013-12-04 02:40:00,31.5,24.8,29.91,SE,139,0.0,0.0,76,0.00,,,0.00,Wunderground v.1.15,2013-12-04 07:40:00,
2013-12-04 02:45:00,31.5,25.1,29.91,SE,139,0.0,0.0,77,0.00,,,0.00,Wunderground v.1.15,2013-12-04 07:45:00,
2013-12-04 02:55:00,31.3,25.5,29.91,SE,139,0.0,0.0,79,0.00,,,0.00,Wunderground v.1.15,2013-12-04 07:55:00,
2013-12-04 03:00:00,31.3,25.8,29.91,SE,138,0.0,0.0,80,0.00,,,0.00,Wunderground v.1.15,2013-12-04 08:00:00,
2013-12-04 03:10:00,31.1,26.2,29.90,SE,138,0.0,0.0,82,0.00,,,0.00,Wunderground v.1.15,2013-12-04 08:10:00,
2013-12-04 03:15:00,31.1,26.5,29.91,SE,138,0.0,0.0,83,0.00,,,0.00,Wunderground v.1.15,2013-12-04 08:15:00,
2013-12-04 03:20:00,31.0,26.4,29.91,SE,138,0.0,0.0,83,0.00,,,0.00,Wunderground v.1.15,2013-12-04 08:20:00,
2013-12-04 03:30:00,30.9,26.6,29.91,SSE,153,0.0,0.0,84,0.00,,,0.00,Wunderground v.1.15,2013-12-04 08:30:00,
2013-12-04 03:35:00,30.9,26.6,29.91,SSE,153,0.0,0.0,84,0.00,,,0.00,Wunderground v.1.15,2013-12-04 08:35:00,
2013-12-04 03:40:00,30.9,26.6,29.91,SSE,153,0.0,0.0,84,0.00,,,0.00,Wunderground v.1.15,2013-12-04 08:40:00,
2013-12-04 03:50:00,30.8,26.5,29.91,SSE,153,0.0,0.0,84,0.00,,,0.00,Wunderground v.1.15,2013-12-04 08:50:00,
2013-12-04 04:00:00,30.8,26.8,29.91,SSE,153,0.0,0.0,85,0.00,,,0.00,Wunderground v.1.15,2013-12-04 09:00:00,
2013-12-04 04:10:00,30.7,26.7,29.92,SSE,153,0.0,0.0,85,0.00,,,0.00,Wunderground v.1.15,2013-12-04 09:10:00,
2013-12-04 04:15:00,30.6,26.6,29.92,SSE,153,0.0,0.0,85,0.00,,,0.00,Wunderground v.1.15,2013-12-04 09:15:00,
2013-12-04 04:20:00,30.5,26.5,29.92,SSE,153,0.0,0.0,85,0.00,,,0.00,Wunderground v.1.15,2013-12-04 09:20:00,
2013-12-04 04:25:00,30.5,26.5,29.92,SSE,153,0.0,0.0,85,0.00,,,0.00,Wunderground v.1.15,2013-12-04 09:25:00,
2013-12-04 04:35:00,30.3,26.3,29.93,SSE,153,0.0,0.0,85,0.00,,,0.00,Wunderground v.1.15,2013-12-04 09:35:00,
2013-12-04 04:44:00,30.2,26.5,29.93,SSE,153,0.0,0.0,86,0.00,,,0.00,Wunderground v.1.15,2013-12-04 09:44:00,
2013-12-04 04:50:00,30.1,26.4,29.93,SSE,153,0.0,0.0,86,0.00,,,0.00,Wunderground v.1.15,2013-12-04 09:50:00,
2013-12-04 05:00:00,30.0,26.6,29.93,SSE,153,0.0,0.0,87,0.00,,,0.00,Wunderground v.1.15,2013-12-04 10:00:00,
2013-12-04 05:10:00,29.9,26.5,29.93,SSE,153,0.0,0.0,87,0.00,,,0.00,Wunderground v.1.15,2013-12-04 10:10:00,
2013-12-04 05:15:00,29.9,26.5,29.93,SSE,153,0.0,0.0,87,0.00,,,0.00,Wunderground v.1.15,2013-12-04 10:15:00,
2013-12-04 05:20:00,29.9,26.8,29.94,SSE,153,0.0,0.0,88,0.00,,,0.00,Wunderground v.1.15,2013-12-04 10:20:00,
2013-12-04 05:30:00,29.9,26.8,29.94,SSE,153,0.0,0.0,88,0.00,,,0.00,Wunderground v.1.15,2013-12-04 10:30:00,
2013-12-04 05:40:00,29.9,26.8,29.94,SSE,153,0.0,0.0,88,0.00,,,0.00,Wunderground v.1.15,2013-12-04 10:40:00,
2013-12-04 05:45:00,30.0,26.9,29.95,SSE,154,0.0,0.0,88,0.00,,,0.00,Wunderground v.1.15,2013-12-04 10:45:00,
2013-12-04 05:50:00,30.1,27.0,29.95,SSE,154,0.0,0.0,88,0.00,,,0.00,Wunderground v.1.15,2013-12-04 10:50:00,
2013-12-04 06:05:00,30.2,27.3,29.95,SSE,153,0.0,0.0,89,0.00,,,0.00,Wunderground v.1.15,2013-12-04 11:05:00,
2013-12-04 06:10:00,30.2,27.3,29.95,SSE,153,0.0,0.0,89,0.00,,,0.00,Wunderground v.1.15,2013-12-04 11:10:00,
2013-12-04 06:20:00,30.1,27.0,29.96,SSE,153,0.0,0.0,88,0.00,,,0.00,Wunderground v.1.15,2013-12-04 11:20:00,
2013-12-04 06:25:00,30.1,27.3,29.96,SSE,153,0.0,0.0,89,0.00,,,0.00,Wunderground v.1.15,2013-12-04 11:25:00,
2013-12-04 06:30:00,30.0,27.2,29.97,SSE,153,0.0,0.0,89,0.00,,,0.00,Wunderground v.1.15,2013-12-04 11:30:00,
2013-12-04 06:40:00,30.0,27.2,29.97,SSE,153,0.0,0.0,89,0.00,,,0.00,Wunderground v.1.15,2013-12-04 11:40:00,
2013-12-04 06:49:00,30.1,27.3,29.97,SSE,153,0.0,0.0,89,0.00,,,0.00,Wunderground v.1.15,2013-12-04 11:49:00,
2013-12-04 06:55:00,30.1,27.3,29.97,SSE,153,0.0,0.0,89,0.00,,,0.00,Wunderground v.1.15,2013-12-04 11:55:00,
2013-12-04 07:00:00,30.1,27.3,29.98,SSE,153,0.0,0.0,89,0.00,,,0.00,Wunderground v.1.15,2013-12-04 12:00:00,
2013-12-04 07:10:00,30.1,27.3,29.98,SSE,153,0.0,0.0,89,0.00,,,0.00,Wunderground v.1.15,2013-12-04 12:10:00,
2013-12-04 07:20:00,30.1,27.3,29.98,SSE,153,0.0,0.0,89,0.00,,,0.00,Wunderground v.1.15,2013-12-04 12:20:00,
2013-12-04 07:30:00,30.2,27.6,29.99,SSE,153,0.0,0.0,90,0.00,,,0.00,Wunderground v.1.15,2013-12-04 12:30:00,
2013-12-04 07:40:00,30.2,27.6,29.98,SSE,153,0.0,0.0,90,0.00,,,0.00,Wunderground v.1.15,2013-12-04 12:40:00,
2013-12-04 07:45:00,30.3,27.7,29.99,SSE,153,0.0,0.0,90,0.00,,,0.00,Wunderground v.1.15,2013-12-04 12:45:00,
2013-12-04 07:50:00,30.3,27.7,30.00,SSE,153,0.0,0.0,90,0.00,,,0.00,Wunderground v.1.15,2013-12-04 12:50:00,
2013-12-04 07:55:00,30.3,27.4,30.00,SSE,153,0.0,0.0,89,0.00,,,0.00,Wunderground v.1.15,2013-12-04 12:55:00,
2013-12-04 08:00:00,30.4,27.8,30.00,SSE,153,0.0,0.0,90,0.00,,,0.00,Wunderground v.1.15,2013-12-04 13:00:00,
2013-12-04 08:10:00,30.5,27.9,30.00,SSE,153,0.0,0.0,90,0.00,,,0.00,Wunderground v.1.15,2013-12-04 13:10:00,
2013-12-04 08:20:00,30.7,27.8,30.00,SSE,153,0.0,0.0,89,0.00,,,0.00,Wunderground v.1.15,2013-12-04 13:20:00,
2013-12-04 08:25:00,30.7,27.8,30.00,SSE,153,0.0,0.0,89,0.00,,,0.00,Wunderground v.1.15,2013-12-04 13:25:00,
2013-12-04 08:30:00,30.8,27.9,30.01,SSE,155,0.0,2.0,89,0.00,,,0.00,Wunderground v.1.15,2013-12-04 13:30:00,
2013-12-04 08:40:00,31.0,28.1,30.01,SSE,157,0.0,0.0,89,0.00,,,0.00,Wunderground v.1.15,2013-12-04 13:40:00,
2013-12-04 08:45:00,31.1,28.0,30.01,SSE,157,0.0,0.0,88,0.00,,,0.00,Wunderground v.1.15,2013-12-04 13:45:00,
2013-12-04 08:55:00,31.2,28.1,30.01,SSE,157,0.0,0.0,88,0.00,,,0.00,Wunderground v.1.15,2013-12-04 13:55:00,
2013-12-04 09:00:00,31.4,28.3,30.03,SSE,157,0.0,0.0,88,0.00,,,0.00,Wunderground v.1.15,2013-12-04 14:00:00,
2013-12-04 09:10:00,31.5,28.4,30.02,SSE,157,0.0,0.0,88,0.00,,,0.00,Wunderground v.1.15,2013-12-04 14:10:00,
2013-12-04 09:15:00,31.6,28.2,30.03,SSE,157,0.0,0.0,87,0.00,,,0.00,Wunderground v.1.15,2013-12-04 14:15:00,
2013-12-04 09:20:00,31.7,28.3,30.03,SSE,157,0.0,0.0,87,0.00,,,0.00,Wunderground v.1.15,2013-12-04 14:20:00,
2013-12-04 09:29:00,32.0,28.6,30.03,ENE,70,0.0,0.0,87,0.00,,,0.00,Wunderground v.1.15,2013-12-04 14:29:00,
2013-12-04 09:35:00,32.0,28.3,30.03,SSW,195,0.0,0.0,86,0.00,,,0.00,Wunderground v.1.15,2013-12-04 14:35:00,
2013-12-04 09:45:00,32.4,28.1,30.02,South,188,1.0,1.0,84,0.00,,,0.00,Wunderground v.1.15,2013-12-04 14:45:00,
2013-12-04 09:50:00,32.5,27.9,30.02,South,174,1.0,2.0,83,0.00,,,0.00,Wunderground v.1.15,2013-12-04 14:50:00,
2013-12-04 10:00:00,32.6,28.0,30.03,South,185,1.0,1.0,83,0.00,,,0.00,Wunderground v.1.15,2013-12-04 15:00:00,
2013-12-04 10:10:00,32.8,27.9,30.02,SSW,196,0.0,0.0,82,0.00,,,0.00,Wunderground v.1.15,2013-12-04 15:10:00,
2013-12-04 10:20:00,33.3,27.8,30.02,SSE,158,0.0,4.0,80,0.00,,,0.00,Wunderground v.1.15,2013-12-04 15:20:00,
2013-12-04 10:25:00,33.5,27.7,30.02,SSE,166,1.0,4.0,79,0.00,,,0.00,Wunderground v.1.15,2013-12-04 15:25:00,
2013-12-04 10:35:00,33.8,27.4,30.02,SE,137,0.0,1.0,77,0.00,,,0.00,Wunderground v.1.15,2013-12-04 15:35:00,
2013-12-04 10:45:00,34.1,27.0,30.01,SE,144,1.0,4.0,75,0.00,,,0.01,Wunderground v.1.15,2013-12-04 15:45:00,
2013-12-04 10:55:00,34.5,27.4,30.01,South,187,0.0,1.0,75,0.00,,,0.01,Wunderground v.1.15,2013-12-04 15:55:00,
2013-12-04 11:00:00,34.5,27.1,30.01,SE,146,1.0,1.0,74,0.00,,,0.01,Wunderground v.1.15,2013-12-04 16:00:00,
2013-12-04 11:10:00,34.5,27.1,30.01,SSW,201,1.0,2.0,74,0.00,,,0.01,Wunderground v.1.15,2013-12-04 16:10:00,
2013-12-04 11:15:00,34.6,27.2,30.01,East,95,1.0,5.0,74,0.00,,,0.01,Wunderground v.1.15,2013-12-04 16:15:00,
2013-12-04 11:25:00,35.0,27.2,30.01,SSW,212,1.0,1.0,73,0.00,,,0.01,Wunderground v.1.15,2013-12-04 16:25:00,
2013-12-04 11:30:00,35.2,27.7,30.01,North,5,0.0,2.0,74,0.00,,,0.01,Wunderground v.1.15,2013-12-04 16:30:00,
2013-12-04 11:40:00,35.2,27.1,30.02,South,180,1.0,4.0,72,0.00,,,0.01,Wunderground v.1.15,2013-12-04 16:40:00,
2013-12-04 11:45:00,35.1,27.3,30.02,ESE,104,1.0,4.0,73,0.00,,,0.01,Wunderground v.1.15,2013-12-04 16:45:00,
2013-12-04 11:55:00,36.2,28.0,30.02,SE,146,0.0,1.0,72,0.00,,,0.01,Wunderground v.1.15,2013-12-04 16:55:00,
2013-12-04 12:00:00,36.4,27.9,30.02,SW,219,1.0,1.0,71,0.00,,,0.01,Wunderground v.1.15,2013-12-04 17:00:00,
2013-12-04 12:05:00,36.8,27.9,30.02,SSE,163,1.0,1.0,70,0.00,,,0.01,Wunderground v.1.15,2013-12-04 17:05:00,
2013-12-04 12:10:00,37.1,27.9,30.02,East,83,1.0,3.0,69,0.00,,,0.01,Wunderground v.1.15,2013-12-04 17:10:00,
2013-12-04 12:20:00,37.1,27.9,30.02,SE,132,1.0,1.0,69,0.00,,,0.01,Wunderground v.1.15,2013-12-04 17:20:00,
2013-12-04 12:30:00,37.1,27.2,30.01,SSE,151,1.0,1.0,67,0.00,,,0.01,Wunderground v.1.15,2013-12-04 17:30:00,
2013-12-04 12:35:00,37.1,27.9,30.00,South,188,1.0,1.0,69,0.00,,,0.01,Wunderground v.1.15,2013-12-04 17:35:00,
2013-12-04 12:40:00,37.0,27.1,30.00,SW,222,1.0,1.0,67,0.00,,,0.01,Wunderground v.1.15,2013-12-04 17:40:00,
2013-12-04 12:45:00,36.8,27.2,29.99,ESE,118,1.0,4.0,68,0.00,,,0.01,Wunderground v.1.15,2013-12-04 17:45:00,
2013-12-04 12:50:00,37.0,27.4,29.99,South,176,1.0,1.0,68,0.00,,,0.01,Wunderground v.1.15,2013-12-04 17:50:00,
2013-12-04 13:00:00,37.2,27.6,29.99,South,176,1.0,1.0,68,0.00,,,0.01,Wunderground v.1.15,2013-12-04 18:00:00,
2013-12-04 13:10:00,37.2,27.2,29.98,South,171,0.0,0.0,67,0.00,,,0.01,Wunderground v.1.15,2013-12-04 18:10:00,
2013-12-04 13:15:00,37.5,27.9,29.98,South,171,0.0,0.0,68,0.00,,,0.01,Wunderground v.1.15,2013-12-04 18:15:00,
2013-12-04 13:20:00,37.6,27.6,29.98,South,171,0.0,0.0,67,0.00,,,0.01,Wunderground v.1.15,2013-12-04 18:20:00,
2013-12-04 13:30:00,37.9,27.9,29.99,South,176,0.0,0.0,67,0.00,,,0.01,Wunderground v.1.15,2013-12-04 18:30:00,
2013-12-04 13:40:00,37.8,27.8,30.00,SSW,198,1.0,1.0,67,0.00,,,0.01,Wunderground v.1.15,2013-12-04 18:40:00,
2013-12-04 13:45:00,37.6,28.0,30.00,SW,229,1.0,1.0,68,0.00,,,0.01,Wunderground v.1.15,2013-12-04 18:45:00,
2013-12-04 13:50:00,37.5,27.9,30.00,SSW,192,2.0,2.0,68,0.00,,,0.01,Wunderground v.1.15,2013-12-04 18:50:00,
2013-12-04 13:55:00,37.5,27.9,30.00,SW,219,2.0,2.0,68,0.00,,,0.01,Wunderground v.1.15,2013-12-04 18:55:00,
2013-12-04 14:00:00,37.4,27.8,30.00,WSW,238,1.0,5.0,68,0.00,,,0.01,Wunderground v.1.15,2013-12-04 19:00:00,
2013-12-04 14:10:00,37.0,27.8,30.00,WNW,290,2.0,2.0,69,0.00,,,0.01,Wunderground v.1.15,2013-12-04 19:10:00,
2013-12-04 14:15:00,36.9,27.7,30.00,SSW,199,2.0,2.0,69,0.00,,,0.01,Wunderground v.1.15,2013-12-04 19:15:00,
2013-12-04 14:20:00,36.9,27.7,30.00,SSW,194,1.0,1.0,69,0.00,,,0.01,Wunderground v.1.15,2013-12-04 19:20:00,
2013-12-04 14:25:00,36.9,27.3,30.01,South,182,0.0,1.0,68,0.00,,,0.01,Wunderground v.1.15,2013-12-04 19:25:00,
2013-12-04 14:30:00,36.8,27.2,30.00,South,182,1.0,2.0,68,0.00,,,0.01,Wunderground v.1.15,2013-12-04 19:30:00,
2013-12-04 14:40:00,36.7,27.5,30.00,SW,224,1.0,1.0,69,0.00,,,0.01,Wunderground v.1.15,2013-12-04 19:40:00,
2013-12-04 14:45:00,36.8,27.6,30.01,SSW,211,0.0,1.0,69,0.00,,,0.01,Wunderground v.1.15,2013-12-04 19:45:00,
2013-12-04 14:50:00,36.9,27.7,30.01,SSW,210,0.0,0.0,69,0.00,,,0.01,Wunderground v.1.15,2013-12-04 19:50:00,
2013-12-04 15:00:00,37.4,27.8,30.01,South,174,0.0,0.0,68,0.00,,,0.01,Wunderground v.1.15,2013-12-04 20:00:00,
2013-12-04 15:10:00,37.0,27.4,30.01,South,176,0.0,0.0,68,0.00,,,0.01,Wunderground v.1.15,2013-12-04 20:10:00,
2013-12-04 15:15:00,36.8,27.2,30.02,South,176,0.0,0.0,68,0.00,,,0.01,Wunderground v.1.15,2013-12-04 20:15:00,
2013-12-04 15:25:00,36.4,27.2,30.03,South,176,0.0,0.0,69,0.00,,,0.01,Wunderground v.1.15,2013-12-04 20:25:00,
2013-12-04 15:35:00,36.0,27.2,30.03,South,176,0.0,0.0,70,0.00,,,0.01,Wunderground v.1.15,2013-12-04 20:35:00,
2013-12-04 15:45:00,35.6,27.1,30.03,South,176,0.0,0.0,71,0.00,,,0.01,Wunderground v.1.15,2013-12-04 20:45:00,
2013-12-04 15:50:00,35.4,26.9,30.03,South,176,0.0,0.0,71,0.00,,,0.01,Wunderground v.1.15,2013-12-04 20:50:00,
2013-12-04 16:00:00,34.7,26.9,30.03,South,176,0.0,0.0,73,0.00,,,0.01,Wunderground v.1.15,2013-12-04 21:00:00,
2013-12-04 16:10:00,33.9,26.8,30.03,South,176,0.0,0.0,75,0.00,,,0.01,Wunderground v.1.15,2013-12-04 21:10:00,
2013-12-04 16:15:00,33.2,26.8,30.03,South,176,0.0,0.0,77,0.00,,,0.01,Wunderground v.1.15,2013-12-04 21:15:00,
2013-12-04 16:20:00,32.6,26.5,30.03,South,176,0.0,0.0,78,0.00,,,0.01,Wunderground v.1.15,2013-12-04 21:20:00,
2013-12-04 16:30:00,32.0,26.8,30.04,South,176,0.0,0.0,81,0.00,,,0.01,Wunderground v.1.15,2013-12-04 21:30:00,
2013-12-04 16:35:00,31.6,26.7,30.04,South,176,0.0,0.0,82,0.00,,,0.01,Wunderground v.1.15,2013-12-04 21:35:00,
2013-12-04 16:45:00,31.0,26.4,30.04,South,176,0.0,0.0,83,0.00,,,0.01,Wunderground v.1.15,2013-12-04 21:45:00,
2013-12-04 16:50:00,30.7,26.1,30.04,South,176,0.0,0.0,83,0.00,,,0.01,Wunderground v.1.15,2013-12-04 21:50:00,
2013-12-04 16:55:00,30.4,26.4,30.04,South,176,0.0,0.0,85,0.00,,,0.01,Wunderground v.1.15,2013-12-04 21:55:00,
2013-12-04 17:00:00,30.3,26.3,30.05,South,176,0.0,0.0,85,0.00,,,0.01,Wunderground v.1.15,2013-12-04 22:00:00,
2013-12-04 17:10:00,29.9,26.2,30.05,South,176,0.0,0.0,86,0.00,,,0.01,Wunderground v.1.15,2013-12-04 22:10:00,
2013-12-04 17:15:00,29.7,26.3,30.05,South,176,0.0,0.0,87,0.00,,,0.01,Wunderground v.1.15,2013-12-04 22:15:00,
2013-12-04 17:25:00,29.6,26.2,30.05,South,176,0.0,0.0,87,0.00,,,0.01,Wunderground v.1.15,2013-12-04 22:25:00,
2013-12-04 17:35:00,29.4,26.0,30.06,South,176,0.0,0.0,87,0.00,,,0.01,Wunderground v.1.15,2013-12-04 22:35:00,
2013-12-04 17:40:00,29.3,26.2,30.06,South,176,0.0,0.0,88,0.00,,,0.01,Wunderground v.1.15,2013-12-04 22:40:00,
2013-12-04 17:45:00,29.3,26.2,30.06,South,176,0.0,0.0,88,0.00,,,0.01,Wunderground v.1.15,2013-12-04 22:45:00,
2013-12-04 17:55:00,29.2,26.1,30.07,South,176,0.0,0.0,88,0.00,,,0.01,Wunderground v.1.15,2013-12-04 22:55:00,
2013-12-04 18:00:00,29.0,25.9,30.07,South,176,0.0,0.0,88,0.00,,,0.01,Wunderground v.1.15,2013-12-04 23:00:00,
2013-12-04 18:09:00,28.7,25.6,30.07,South,176,0.0,0.0,88,0.00,,,0.01,Wunderground v.1.15,2013-12-04 23:09:00,
2013-12-04 18:14:00,28.7,25.9,30.08,South,176,0.0,0.0,89,0.00,,,0.01,Wunderground v.1.15,2013-12-04 23:14:00,
2013-12-04 18:20:00,28.5,25.7,30.09,South,176,0.0,0.0,89,0.00,,,0.01,Wunderground v.1.15,2013-12-04 23:20:00,
2013-12-04 18:25:00,28.4,25.6,30.09,South,176,0.0,0.0,89,0.00,,,0.01,Wunderground v.1.15,2013-12-04 23:25:00,
2013-12-04 18:30:00,28.4,25.6,30.09,South,176,0.0,0.0,89,0.00,,,0.01,Wunderground v.1.15,2013-12-04 23:30:00,
2013-12-04 18:40:00,28.2,25.4,30.09,South,176,0.0,0.0,89,0.00,,,0.01,Wunderground v.1.15,2013-12-04 23:40:00,
2013-12-04 18:50:00,28.1,25.5,30.09,South,176,0.0,0.0,90,0.00,,,0.01,Wunderground v.1.15,2013-12-04 23:50:00,
2013-12-04 19:00:00,27.7,25.2,30.09,South,176,0.0,0.0,90,0.00,,,0.01,Wunderground v.1.15,2013-12-05 00:00:00,
2013-12-04 19:10:00,27.5,25.0,30.09,South,176,0.0,0.0,90,0.00,,,0.01,Wunderground v.1.15,2013-12-05 00:10:00,
2013-12-04 19:19:00,27.3,25.0,30.09,South,176,0.0,0.0,91,0.00,,,0.01,Wunderground v.1.15,2013-12-05 00:19:00,
2013-12-04 19:25:00,27.3,25.0,30.08,South,176,0.0,0.0,91,0.00,,,0.01,Wunderground v.1.15,2013-12-05 00:25:00,
2013-12-04 19:30:00,27.2,24.9,30.08,South,176,0.0,0.0,91,0.00,,,0.01,Wunderground v.1.15,2013-12-05 00:30:00,
2013-12-04 19:40:00,27.4,25.1,30.08,South,176,0.0,0.0,91,0.00,,,0.01,Wunderground v.1.15,2013-12-05 00:40:00,
2013-12-04 19:45:00,27.4,25.1,30.08,South,176,0.0,0.0,91,0.00,,,0.01,Wunderground v.1.15,2013-12-05 00:45:00,
2013-12-04 19:55:00,27.4,25.4,30.08,South,176,0.0,0.0,92,0.00,,,0.01,Wunderground v.1.15,2013-12-05 00:55:00,
2013-12-04 20:00:00,27.3,25.0,30.08,South,176,0.0,0.0,91,0.00,,,0.01,Wunderground v.1.15,2013-12-05 01:00:00,
2013-12-04 20:10:00,26.9,24.6,30.08,South,176,0.0,0.0,91,0.00,,,0.01,Wunderground v.1.15,2013-12-05 01:10:00,
2013-12-04 20:15:00,26.8,24.8,30.08,South,176,0.0,0.0,92,0.00,,,0.01,Wunderground v.1.15,2013-12-05 01:15:00,
2013-12-04 20:25:00,26.6,26.4,30.08,South,176,0.0,0.0,99,0.00,,,0.01,Wunderground v.1.15,2013-12-05 01:25:00,
2013-12-04 20:30:00,26.5,24.5,30.08,South,176,0.0,0.0,92,0.00,,,0.01,Wunderground v.1.15,2013-12-05 01:30:00,
2013-12-04 20:40:00,26.5,24.8,30.08,South,176,0.0,0.0,93,0.00,,,0.01,Wunderground v.1.15,2013-12-05 01:40:00,
2013-12-04 20:45:00,26.5,24.5,30.08,South,176,0.0,0.0,92,0.00,,,0.01,Wunderground v.1.15,2013-12-05 01:45:00,
2013-12-04 20:50:00,26.3,24.3,30.08,South,176,0.0,0.0,92,0.00,,,0.01,Wunderground v.1.15,2013-12-05 01:50:00,
2013-12-04 21:00:00,26.2,24.5,30.08,South,176,0.0,0.0,93,0.00,,,0.01,Wunderground v.1.15,2013-12-05 02:00:00,
2013-12-04 21:10:00,26.1,24.4,30.08,South,176,0.0,0.0,93,0.00,,,0.01,Wunderground v.1.15,2013-12-05 02:10:00,
2013-12-04 21:19:00,26.0,24.3,30.08,South,176,0.0,0.0,93,0.00,,,0.01,Wunderground v.1.15,2013-12-05 02:19:00,
2013-12-04 21:24:00,25.8,24.1,30.08,South,176,0.0,0.0,93,0.00,,,0.01,Wunderground v.1.15,2013-12-05 02:24:00,
2013-12-04 21:30:00,25.6,23.9,30.08,South,176,0.0,0.0,93,0.00,,,0.01,Wunderground v.1.15,2013-12-05 02:30:00,
2013-12-04 21:35:00,25.3,23.6,30.08,South,176,0.0,0.0,93,0.00,,,0.01,Wunderground v.1.15,2013-12-05 02:35:00,
2013-12-04 21:40:00,25.2,23.5,30.08,South,176,0.0,0.0,93,0.00,,,0.01,Wunderground v.1.15,2013-12-05 02:40:00,
2013-12-04 21:45:00,25.2,23.7,30.08,South,176,0.0,0.0,94,0.00,,,0.01,Wunderground v.1.15,2013-12-05 02:45:00,
2013-12-04 21:55:00,25.4,23.9,30.08,South,176,0.0,0.0,94,0.00,,,0.01,Wunderground v.1.15,2013-12-05 02:55:00,
2013-12-04 22:05:00,25.3,23.8,30.09,South,176,0.0,0.0,94,0.00,,,0.01,Wunderground v.1.15,2013-12-05 03:05:00,
2013-12-04 22:15:00,25.1,23.6,30.09,South,176,0.0,0.0,94,0.00,,,0.01,Wunderground v.1.15,2013-12-05 03:15:00,
2013-12-04 22:20:00,25.1,23.6,30.09,South,176,0.0,1.0,94,0.00,,,0.01,Wunderground v.1.15,2013-12-05 03:20:00,
2013-12-04 22:30:00,25.1,23.6,30.09,South,176,0.0,0.0,94,0.00,,,0.01,Wunderground v.1.15,2013-12-05 03:30:00,
2013-12-04 22:40:00,24.9,23.4,30.09,South,176,0.0,0.0,94,0.00,,,0.01,Wunderground v.1.15,2013-12-05 03:40:00,
2013-12-04 22:49:00,24.7,23.2,30.09,South,176,0.0,0.0,94,0.00,,,0.01,Wunderground v.1.15,2013-12-05 03:49:00,
2013-12-04 22:54:00,24.5,23.0,30.10,South,176,0.0,0.0,94,0.00,,,0.01,Wunderground v.1.15,2013-12-05 03:54:00,
2013-12-04 23:00:00,24.5,23.0,30.10,South,176,0.0,0.0,94,0.00,,,0.01,Wunderground v.1.15,2013-12-05 04:00:00,
2013-12-04 23:10:00,24.4,22.9,30.10,South,176,0.0,0.0,94,0.00,,,0.01,Wunderground v.1.15,2013-12-05 04:10:00,
2013-12-04 23:15:00,24.4,22.9,30.10,South,176,0.0,0.0,94,0.00,,,0.01,Wunderground v.1.15,2013-12-05 04:15:00,
2013-12-04 23:25:00,24.2,22.7,30.10,South,176,0.0,1.0,94,0.00,,,0.01,Wunderground v.1.15,2013-12-05 04:25:00,
2013-12-04 23:30:00,24.2,22.7,30.09,South,176,0.0,0.0,94,0.00,,,0.01,Wunderground v.1.15,2013-12-05 04:30:00,
2013-12-04 23:40:00,24.3,23.1,30.09,South,176,0.0,0.0,95,0.00,,,0.01,Wunderground v.1.15,2013-12-05 04:40:00,
2013-12-04 23:45:00,24.2,23.0,30.09,South,176,0.0,0.0,95,0.00,,,0.01,Wunderground v.1.15,2013-12-05 04:45:00,
2013-12-04 23:50:00,24.1,22.9,30.09,South,176,0.0,0.0,95,0.00,,,0.01,Wunderground v.1.15,2013-12-05 04:50:00,
2013-12-04 23:55:00,24.0,22.8,30.10,South,176,0.0,0.0,95,0.00,,,0.01,Wunderground v.1.15,2013-12-05 04:55:00,